This is the latest recevied weather packets stored in our database for station/object WA4ORT. If no packets are shown the sender has not sent any weather packets the latest 10 day(s).
| Time | Temp. | Humidity | Pressure | Rain* | Wind** | Luminosity | Snow |
|---|---|---|---|---|---|---|---|
| 1777523385 | 23.89° C | - | - | 0 mm | 2.68 m/s, 290° | - | - |
| 1777522487 | 23.33° C | - | - | 0 mm | 2.24 m/s, 288° | - | - |
| 1777521593 | 23.33° C | - | - | 0 mm | 1.34 m/s, 281° | - | - |
| 1777520698 | 23.33° C | - | - | 0 mm | 0.45 m/s, 253° | - | - |
| 1777519800 | 23.89° C | - | - | 0 mm | 2.24 m/s, 291° | - | - |
| 1777518905 | 23.89° C | - | - | 0 mm | 0.89 m/s, 277° | - | - |
| 1777518011 | 23.89° C | - | - | 0 mm | 1.79 m/s, 294° | - | - |
| 1777517113 | 23.89° C | - | - | 0 mm | 1.34 m/s, 233° | - | - |
| 1777516218 | 23.89° C | - | - | 0 mm | 0 m/s | - | - |
| 1777515324 | 23.89° C | - | - | 0 mm | 0.45 m/s, 226° | - | - |
| 1777514426 | 23.89° C | - | - | 0 mm | 0 m/s | - | - |
| 1777513531 | 24.44° C | - | - | 0 mm | 0 m/s | - | - |
| 1777512637 | 24.44° C | - | - | 0 mm | 0 m/s | - | - |
| 1777511739 | 24.44° C | - | - | 0 mm | 0 m/s | - | - |
| 1777510844 | 24.44° C | - | - | 0 mm | 0 m/s | - | - |
| 1777509949 | 25° C | - | - | 0 mm | 0.45 m/s, 309° | - | - |
| 1777509051 | 25° C | - | - | 0 mm | 1.79 m/s, 304° | - | - |
| 1777508157 | 25.56° C | - | - | 0 mm | 0.89 m/s, 294° | - | - |
| 1777507262 | 25.56° C | - | - | 0 mm | 1.34 m/s, 257° | - | - |
| 1777506364 | 26.11° C | - | - | 0 mm | 0.89 m/s, 290° | - | - |
| 1777505469 | 26.11° C | - | - | 0 mm | 1.34 m/s, 277° | - | - |
| 1777504575 | 26.67° C | - | - | 0 mm | 2.24 m/s, 280° | - | - |
| 1777503677 | 26.67° C | - | - | 0 mm | 2.68 m/s, 278° | - | - |
| 1777502783 | 27.78° C | - | - | 0 mm | 0.89 m/s, 252° | - | - |
| 1777501888 | 27.78° C | - | - | 0 mm | 1.79 m/s, 245° | - | - |
* Rain latest hour (hover to see other rain measurements)
** Current wind speed in m/s (hover to see current wind gust speed)